This is the latest recevied weather packets stored in our database for station/object EA3KZ-1. If no packets are shown the sender has not sent any weather packets the latest 10 day(s).
| Time | Temp. | Humidity | Pressure | Rain* | Wind** | Luminosity | Snow |
|---|---|---|---|---|---|---|---|
| 1787946366 | 23.89° C | 33% | 1014 hPa | 0 mm | - | - | - |
| 1787945764 | 24.44° C | 32% | 1013.9 hPa | 0 mm | - | - | - |
| 1787945161 | 24.44° C | 32% | 1013.9 hPa | 0 mm | - | - | - |
| 1787944559 | 24.44° C | 31% | 1013.7 hPa | 0 mm | - | - | - |
| 1787943956 | 24.44° C | 31% | 1013.6 hPa | 0 mm | - | - | - |
| 1787943353 | 25° C | 31% | 1013.3 hPa | 0 mm | - | - | - |
| 1787942751 | 25.56° C | 30% | 1013 hPa | 0 mm | - | - | - |
| 1787942148 | 25.56° C | 30% | 1013.1 hPa | 0 mm | - | - | - |
| 1787941546 | 26.11° C | 30% | 1013.3 hPa | 0 mm | - | - | - |
| 1787940943 | 26.11° C | 29% | 1013 hPa | 0 mm | - | - | - |
| 1787940341 | 26.11° C | 28% | 1013 hPa | 0 mm | - | - | - |
| 1787939738 | 26.67° C | 28% | 1012.9 hPa | 0 mm | - | - | - |
| 1787939135 | 27.22° C | 28% | 1012.8 hPa | 0 mm | - | - | - |
| 1787938533 | 27.22° C | 27% | 1012.9 hPa | 0 mm | - | - | - |
| 1787937930 | 27.78° C | 25% | 1012.9 hPa | 0 mm | - | - | - |
| 1787937327 | 27.78° C | 24% | 1012.8 hPa | 0 mm | - | - | - |
| 1787936725 | 27.78° C | 24% | 1013 hPa | 0 mm | - | - | - |
| 1787936122 | 27.78° C | 23% | 1012.9 hPa | 0 mm | - | - | - |
| 1787935520 | 27.78° C | 23% | 1013 hPa | 0 mm | - | - | - |
| 1787934917 | 27.78° C | 23% | 1013.1 hPa | 0 mm | - | - | - |
| 1787934315 | 28.33° C | 23% | 1013.1 hPa | 0 mm | - | - | - |
| 1787933772 | 28.33° C | 23% | 1012.8 hPa | 0 mm | - | - | - |
| 1787933170 | 28.89° C | 24% | 1012.9 hPa | 0 mm | - | - | - |
| 1787932567 | 28.33° C | 24% | 1013 hPa | 0 mm | - | - | - |
| 1787931965 | 28.33° C | 23% | 1013 hPa | 0 mm | - | - | - |
* Rain latest hour (hover to see other rain measurements)
** Current wind speed in m/s (hover to see current wind gust speed)